| time (UTC) | temp F | wind direction | speed MPH | gust MPH | rain 1hr in | rain 24hr in | rain mn in | humidity % | barometer mb |
| 20260905224532 | 86 | 105 | 1.0 | 3.0 | 0.00 | 0.01 | 0.01 | 87 | 1011.2 |
| 20260905224018 | 86 | 119 | 0.0 | 3.0 | 0.00 | 0.01 | 0.01 | 87 | 1011.2 |
| 20260905223510 | 85 | 107 | 1.0 | 4.0 | 0.00 | 0.01 | 0.01 | 87 | 1011.2 |
| 20260905223018 | 85 | 157 | 1.0 | 4.0 | 0.00 | 0.01 | 0.01 | 87 | 1011.2 |
| 20260905222510 | 85 | 111 | 0.0 | 3.0 | 0.00 | 0.01 | 0.01 | 87 | 1011.2 |
| 20260905222011 | 85 | 115 | 1.0 | 5.0 | 0.01 | 0.01 | 0.01 | 87 | 1011.2 |
| 20260905221524 | 85 | 178 | 1.0 | 5.0 | 0.01 | 0.01 | 0.01 | 87 | 1011.2 |
| 20260905221017 | 84 | 155 | 2.0 | 5.0 | 0.01 | 0.01 | 0.01 | 87 | 1011.2 |
| 20260905220514 | 84 | 178 | 1.0 | 4.0 | 0.01 | 0.01 | 0.01 | 88 | 1011.4 |
| 20260905220033 | 84 | 103 | 1.0 | 4.0 | 0.01 | 0.01 | 0.01 | 88 | 1011.3 |
| 20260905215509 | 84 | 136 | 0.0 | 4.0 | 0.01 | 0.01 | 0.01 | 88 | 1011.2 |
| 20260905215010 | 84 | 58 | 1.0 | 6.0 | 0.01 | 0.01 | 0.01 | 87 | 1011.3 |
| 20260905214522 | 84 | 178 | 2.0 | 6.0 | 0.01 | 0.01 | 0.01 | 87 | 1011.3 |
| 20260905214013 | 84 | 51 | 1.0 | 5.0 | 0.01 | 0.01 | 0.01 | 86 | 1011.3 |
| 20260905213516 | 84 | 153 | 2.0 | 6.0 | 0.01 | 0.01 | 0.01 | 85 | 1011.3 |
| 20260905213031 | 85 | 165 | 2.0 | 10.0 | 0.01 | 0.01 | 0.01 | 83 | 1011.5 |
| 20260905212517 | 85 | 169 | 2.0 | 11.0 | 0.01 | 0.01 | 0.01 | 82 | 1011.8 |
| 20260905212014 | 87 | 205 | 1.0 | 12.0 | 0.00 | 0.00 | 0.00 | 80 | 1012.1 |
| 20260905211515 | 88 | 175 | 4.0 | 12.0 | 0.00 | 0.00 | 0.00 | 78 | 1012.1 |
| 20260905211008 | 90 | 169 | 4.0 | 9.0 | 0.00 | 0.00 | 0.00 | 76 | 1012.1 |
| 20260905210512 | 91 | 145 | 4.0 | 9.0 | 0.00 | 0.00 | 0.00 | 72 | 1012.0 |
| 20260905210025 | 92 | 167 | 4.0 | 13.0 | 0.00 | 0.00 | 0.00 | 70 | 1011.9 |
| 20260905205517 | 93 | 175 | 4.0 | 15.0 | 0.00 | 0.00 | 0.00 | 70 | 1011.5 |
| 20260905205016 | 94 | 197 | 7.0 | 15.0 | 0.00 | 0.00 | 0.00 | 69 | 1011.5 |
| 20260905204531 | 95 | 138 | 4.0 | 12.0 | 0.00 | 0.00 | 0.00 | 69 | 1011.6 |
| 20260905204019 | 95 | 93 | 3.0 | 12.0 | 0.00 | 0.00 | 0.00 | 70 | 1011.5 |
| 20260905203509 | 94 | 191 | 2.0 | 9.0 | 0.00 | 0.00 | 0.00 | 71 | 1011.4 |
| 20260905203018 | 93 | 178 | 3.0 | 7.0 | 0.00 | 0.00 | 0.00 | 73 | 1011.5 |
| 20260905202512 | 93 | 148 | 3.0 | 7.0 | 0.00 | 0.00 | 0.00 | 70 | 1011.5 |
| 20260905202013 | 93 | 153 | 3.0 | 7.0 | 0.00 | 0.00 | 0.00 | 69 | 1011.7 |
| 20260905201531 | 94 | 72 | 2.0 | 11.0 | 0.00 | 0.00 | 0.00 | 67 | 1011.7 |
| 20260905201016 | 95 | 164 | 4.0 | 14.0 | 0.00 | 0.00 | 0.00 | 64 | 1011.7 |
| 20260905200520 | 97 | 143 | 7.0 | 14.0 | 0.00 | 0.00 | 0.00 | 61 | 1011.8 |
| 20260905200035 | 98 | 187 | 1.0 | 5.0 | 0.00 | 0.00 | 0.00 | 61 | 1011.7 |
| 20260905195512 | 98 | 93 | 1.0 | 8.0 | 0.00 | 0.00 | 0.00 | 62 | 1011.7 |
| 20260905195011 | 98 | 265 | 3.0 | 12.0 | 0.00 | 0.00 | 0.00 | 58 | 1011.9 |
| 20260905194524 | 99 | 193 | 5.0 | 12.0 | 0.00 | 0.00 | 0.00 | 57 | 1011.9 |
| 20260905194014 | 100 | 129 | 4.0 | 7.0 | 0.00 | 0.00 | 0.00 | 57 | 1011.8 |
| 20260905193521 | 100 | 9 | 1.0 | 6.0 | 0.00 | 0.00 | 0.00 | 60 | 1011.9 |
| 20260905193033 | 100 | 103 | 2.0 | 6.0 | 0.00 | 0.00 | 0.00 | 60 | 1011.9 |
| 20260905192517 | 101 | 133 | 2.0 | 9.0 | 0.00 | 0.00 | 0.00 | 57 | 1012.0 |
| 20260905192017 | 101 | 188 | 4.0 | 9.0 | 0.00 | 0.00 | 0.00 | 59 | 1011.9 |
| 20260905191515 | 100 | 150 | 2.0 | 8.0 | 0.00 | 0.01 | 0.00 | 64 | 1012.0 |
| 20260905191012 | 99 | 238 | 1.0 | 6.0 | 0.00 | 0.01 | 0.00 | 64 | 1012.0 |
| 20260905190514 | 98 | 67 | 1.0 | 5.0 | 0.00 | 0.01 | 0.00 | 63 | 1012.1 |
| 20260905190043 | 98 | 291 | 2.0 | 6.0 | 0.00 | 0.01 | 0.00 | 57 | 1012.2 |
| 20260905185514 | 98 | 163 | 1.0 | 6.0 | 0.00 | 0.01 | 0.00 | 64 | 1012.2 |
| 20260905185020 | 98 | 163 | 2.0 | 6.0 | 0.00 | 0.01 | 0.00 | 61 | 1012.3 |
| 20260905184537 | 99 | 22 | 1.0 | 6.0 | 0.00 | 0.01 | 0.00 | 60 | 1012.3 |
| 20260905184019 | 99 | 31 | 2.0 | 7.0 | 0.00 | 0.01 | 0.00 | 61 | 1012.4 |
| 20260905183510 | 98 | 211 | 3.0 | 7.0 | 0.00 | 0.01 | 0.00 | 63 | 1012.3 |
| 20260905183019 | 97 | 98 | 3.0 | 9.0 | 0.00 | 0.01 | 0.00 | 68 | 1012.5 |
| 20260905182514 | 96 | 54 | 2.0 | 9.0 | 0.00 | 0.01 | 0.00 | 66 | 1012.6 |
| 20260905182012 | 96 | 48 | 3.0 | 9.0 | 0.00 | 0.01 | 0.00 | 64 | 1012.8 |
| 20260905181528 | 95 | 119 | 2.0 | 6.0 | 0.00 | 0.01 | 0.00 | 69 | 1012.9 |
| 20260905181014 | 95 | 31 | 2.0 | 6.0 | 0.00 | 0.01 | 0.00 | 69 | 1013.1 |
| 20260905180518 | 95 | 24 | 2.0 | 5.0 | 0.00 | 0.01 | 0.00 | 68 | 1013.3 |
| 20260905180032 | 96 | 284 | 1.0 | 5.0 | 0.00 | 0.01 | 0.00 | 71 | 1013.5 |
| 20260905175509 | 95 | 93 | 1.0 | 5.0 | 0.00 | 0.01 | 0.00 | 71 | 1013.5 |
| 20260905175012 | 94 | 221 | 1.0 | 6.0 | 0.00 | 0.01 | 0.00 | 69 | 1013.6 |
| 20260905174526 | 94 | 93 | 2.0 | 6.0 | 0.00 | 0.01 | 0.00 | 72 | 1013.7 |
| 20260905174013 | 93 | 24 | 3.0 | 6.0 | 0.00 | 0.01 | 0.00 | 73 | 1013.9 |
| 20260905173516 | 92 | 101 | 1.0 | 5.0 | 0.00 | 0.01 | 0.00 | 74 | 1013.9 |
| 20260905173029 | 92 | 291 | 1.0 | 5.0 | 0.00 | 0.01 | 0.00 | 70 | 1014.0 |
| 20260905172518 | 92 | 250 | 1.0 | 5.0 | 0.00 | 0.01 | 0.00 | 72 | 1014.1 |
| 20260905172020 | 92 | 309 | 1.0 | 5.0 | 0.00 | 0.01 | 0.00 | 72 | 1014.1 |
| 20260905171542 | 93 | 15 | 1.0 | 4.0 | 0.00 | 0.01 | 0.00 | 71 | 1014.1 |
| 20260905171011 | 94 | 9 | 1.0 | 5.0 | 0.00 | 0.01 | 0.00 | 69 | 1014.1 |
| 20260905170514 | 96 | 207 | 2.0 | 5.0 | 0.00 | 0.01 | 0.00 | 68 | 1014.1 |
| 20260905170028 | 96 | 178 | 2.0 | 5.0 | 0.00 | 0.01 | 0.00 | 70 | 1014.2 |
| 20260905165514 | 95 | 93 | 2.0 | 6.0 | 0.00 | 0.01 | 0.00 | 69 | 1014.3 |
| 20260905165019 | 95 | 196 | 2.0 | 6.0 | 0.00 | 0.01 | 0.00 | 71 | 1014.3 |
| 20260905164508 | 94 | 221 | 2.0 | 5.0 | 0.00 | 0.01 | 0.00 | 72 | 1014.3 |
| 20260905164009 | 93 | 178 | 1.0 | 5.0 | 0.00 | 0.01 | 0.00 | 73 | 1014.3 |
| 20260905163510 | 92 | 93 | 2.0 | 6.0 | 0.00 | 0.01 | 0.00 | 74 | 1014.4 |
| 20260905163018 | 92 | 238 | 1.0 | 6.0 | 0.00 | 0.04 | 0.00 | 74 | 1014.4 |
| 20260905162514 | 91 | 93 | 1.0 | 6.0 | 0.00 | 0.06 | 0.00 | 75 | 1014.5 |
| 20260905162014 | 91 | 107 | 2.0 | 6.0 | 0.00 | 0.06 | 0.00 | 78 | 1014.5 |
| 20260905161530 | 90 | 168 | 2.0 | 6.0 | 0.00 | 0.07 | 0.00 | 79 | 1014.5 |
| 20260905161019 | 89 | 93 | 0.0 | 3.0 | 0.00 | 0.07 | 0.00 | 78 | 1014.4 |
| 20260905160503 | 89 | 51 | 1.0 | 3.0 | 0.00 | 0.07 | 0.00 | 80 | 1014.5 |
| 20260905160018 | 88 | 123 | 1.0 | 3.0 | 0.00 | 0.07 | 0.00 | 80 | 1014.4 |
| 20260905155514 | 88 | 59 | 1.0 | 3.0 | 0.00 | 0.07 | 0.00 | 83 | 1014.3 |
| 20260905155010 | 88 | 67 | 1.0 | 3.0 | 0.00 | 0.07 | 0.00 | 81 | 1014.3 |
| 20260905154523 | 88 | 80 | 1.0 | 3.0 | 0.00 | 0.07 | 0.00 | 81 | 1014.4 |
| 20260905154013 | 88 | 198 | 1.0 | 5.0 | 0.00 | 0.07 | 0.00 | 81 | 1014.4 |
| 20260905153519 | 88 | 291 | 1.0 | 5.0 | 0.00 | 0.07 | 0.00 | 78 | 1014.4 |
| 20260905153047 | 88 | 93 | 1.0 | 4.0 | 0.00 | 0.07 | 0.00 | 82 | 1014.4 |
| 20260905152507 | 88 | 279 | 1.0 | 5.0 | 0.00 | 0.07 | 0.00 | 82 | 1014.4 |
| 20260905152008 | 87 | 282 | 1.0 | 5.0 | 0.00 | 0.07 | 0.00 | 83 | 1014.5 |
| 20260905151518 | 87 | 283 | 1.0 | 5.0 | 0.00 | 0.07 | 0.00 | 85 | 1014.6 |
| 20260905151011 | 86 | 153 | 1.0 | 5.0 | 0.00 | 0.07 | 0.00 | 87 | 1014.5 |
| 20260905150515 | 85 | 242 | 1.0 | 5.0 | 0.00 | 0.07 | 0.00 | 88 | 1014.6 |
| 20260905150027 | 85 | 229 | 1.0 | 4.0 | 0.00 | 0.07 | 0.00 | 91 | 1014.5 |
| 20260905145517 | 84 | 165 | 2.0 | 6.0 | 0.00 | 0.07 | 0.00 | 92 | 1014.5 |
| 20260905145016 | 84 | 105 | 1.0 | 6.0 | 0.00 | 0.07 | 0.00 | 93 | 1014.5 |
| 20260905144516 | 83 | 265 | 1.0 | 5.0 | 0.00 | 0.07 | 0.00 | 94 | 1014.4 |
| 20260905144019 | 82 | 265 | 1.0 | 5.0 | 0.00 | 0.07 | 0.00 | 95 | 1014.4 |
| 20260905143510 | 81 | 316 | 1.0 | 3.0 | 0.00 | 0.07 | 0.00 | 95 | 1014.4 |
| 20260905143025 | 81 | 316 | 1.0 | 3.0 | 0.00 | 0.07 | 0.00 | 96 | 1014.4 |
| 20260905142513 | 80 | 137 | 0.0 | 4.0 | 0.00 | 0.07 | 0.00 | 96 | 1014.4 |
| 20260905142016 | 80 | 178 | 1.0 | 4.0 | 0.00 | 0.07 | 0.00 | 96 | 1014.4 |
| 20260905141532 | 80 | 51 | 1.0 | 3.0 | 0.00 | 0.07 | 0.00 | 96 | 1014.5 |
| 20260905141017 | 80 | 9 | 1.0 | 3.0 | 0.00 | 0.07 | 0.00 | 96 | 1014.4 |
| 20260905140508 | 80 | 205 | 0.0 | 4.0 | 0.00 | 0.07 | 0.00 | 96 | 1014.3 |
| 20260905140015 | 79 | 238 | 0.0 | 4.0 | 0.00 | 0.07 | 0.00 | 96 | 1014.2 |
| 20260905135511 | 79 | 119 | 0.0 | 4.0 | 0.00 | 0.07 | 0.00 | 96 | 1014.2 |
| 20260905135013 | 79 | 161 | 1.0 | 4.0 | 0.00 | 0.07 | 0.00 | 97 | 1014.2 |
| 20260905134527 | 79 | 171 | 0.0 | 2.0 | 0.00 | 0.07 | 0.00 | 96 | 1014.2 |
| 20260905134017 | 79 | 41 | 0.0 | 2.0 | 0.00 | 0.07 | 0.00 | 96 | 1014.2 |
| 20260905133516 | 78 | 221 | 0.0 | 2.0 | 0.00 | 0.07 | 0.00 | 96 | 1014.2 |
| 20260905133030 | 78 | 129 | 0.0 | 2.0 | 0.00 | 0.07 | 0.00 | 96 | 1014.3 |
| 20260905132506 | 78 | 9 | 0.0 | 2.0 | 0.00 | 0.07 | 0.00 | 96 | 1014.3 |
| 20260905132011 | 78 | 51 | 0.0 | 2.0 | 0.00 | 0.07 | 0.00 | 96 | 1014.3 |
| 20260905131519 | 77 | 137 | 0.0 | 2.0 | 0.00 | 0.07 | 0.00 | 96 | 1014.2 |
| 20260905131016 | 77 | 51 | 1.0 | 2.0 | 0.00 | 0.07 | 0.00 | 96 | 1014.2 |
| 20260905130515 | 77 | 41 | 0.0 | 2.0 | 0.00 | 0.07 | 0.00 | 96 | 1014.1 |
| 20260905130031 | 77 | 119 | 0.0 | 2.0 | 0.00 | 0.07 | 0.00 | 96 | 1014.0 |
| 20260905125517 | 76 | 107 | 0.0 | 2.0 | 0.00 | 0.07 | 0.00 | 96 | 1014.0 |
| 20260905125019 | 76 | 119 | 0.0 | 1.0 | 0.00 | 0.07 | 0.00 | 96 | 1013.9 |
| 20260905124521 | 76 | 9 | 0.0 | 2.0 | 0.00 | 0.07 | 0.00 | 96 | 1013.9 |
| 20260905124009 | 76 | 93 | 0.0 | 2.0 | 0.00 | 0.07 | 0.00 | 96 | 1013.8 |
| 20260905123509 | 76 | 137 | 0.0 | 1.0 | 0.00 | 0.07 | 0.00 | 96 | 1013.6 |
| 20260905123023 | 76 | 51 | 0.0 | 1.0 | 0.00 | 0.07 | 0.00 | 96 | 1013.6 |
| 20260905122512 | 76 | 51 | 0.0 | 2.0 | 0.00 | 0.07 | 0.00 | 96 | 1013.7 |
| 20260905122022 | 76 | 67 | 0.0 | 2.0 | 0.00 | 0.07 | 0.00 | 95 | 1013.7 |
| 20260905121532 | 76 | 67 | 0.0 | 2.0 | 0.00 | 0.07 | 0.00 | 95 | 1013.6 |
| 20260905121020 | 76 | 76 | 0.0 | 2.0 | 0.00 | 0.07 | 0.00 | 95 | 1013.5 |
| 20260905120519 | 76 | 51 | 0.0 | 2.0 | 0.00 | 0.07 | 0.00 | 95 | 1013.5 |
| 20260905120020 | 76 | 146 | 1.0 | 2.0 | 0.00 | 0.07 | 0.00 | 95 | 1013.5 |
| 20260905115510 | 76 | 137 | 0.0 | 2.0 | 0.00 | 0.07 | 0.00 | 95 | 1013.3 |
| 20260905115015 | 76 | 51 | 0.0 | 2.0 | 0.00 | 0.07 | 0.00 | 95 | 1013.3 |
| 20260905114527 | 76 | 9 | 0.0 | 2.0 | 0.00 | 0.07 | 0.00 | 95 | 1013.2 |
| 20260905114016 | 76 | 58 | 0.0 | 2.0 | 0.00 | 0.07 | 0.00 | 95 | 1013.3 |
| 20260905113518 | 76 | 51 | 0.0 | 1.0 | 0.00 | 0.07 | 0.00 | 95 | 1013.1 |
| 20260905113033 | 76 | 34 | 0.0 | 2.0 | 0.00 | 0.07 | 0.00 | 95 | 1013.1 |
| 20260905112515 | 76 | 41 | 0.0 | 2.0 | 0.00 | 0.07 | 0.00 | 95 | 1013.1 |
| 20260905112008 | 76 | 9 | 0.0 | 2.0 | 0.00 | 0.07 | 0.00 | 95 | 1013.0 |
| 20260905111521 | 76 | 34 | 0.0 | 1.0 | 0.00 | 0.07 | 0.00 | 95 | 1013.0 |
| 20260905111015 | 76 | 67 | 0.0 | 1.0 | 0.00 | 0.07 | 0.00 | 95 | 1012.9 |
| 20260905110514 | 76 | 51 | 0.0 | 1.0 | 0.00 | 0.07 | 0.00 | 95 | 1012.8 |
| 20260905110027 | 76 | 9 | 0.0 | 1.0 | 0.00 | 0.07 | 0.00 | 95 | 1012.8 |
| 20260905105519 | 76 | 93 | 0.0 | 1.0 | 0.00 | 0.07 | 0.00 | 95 | 1012.8 |
| 20260905105019 | 76 | 93 | 0.0 | 1.0 | 0.00 | 0.07 | 0.00 | 95 | 1012.8 |
| 20260905104538 | 76 | 93 | 0.0 | 1.0 | 0.00 | 0.07 | 0.00 | 95 | 1012.8 |
| 20260905104011 | 76 | 51 | 0.0 | 1.0 | 0.00 | 0.07 | 0.00 | 95 | 1012.6 |
| 20260905103512 | 76 | 93 | 0.0 | 1.0 | 0.00 | 0.07 | 0.00 | 95 | 1012.7 |
| 20260905103027 | 77 | 51 | 0.0 | 1.0 | 0.00 | 0.07 | 0.00 | 95 | 1012.7 |
| 20260905102515 | 77 | 137 | 0.0 | 2.0 | 0.00 | 0.07 | 0.00 | 95 | 1012.8 |
| 20260905102015 | 77 | 93 | 0.0 | 2.0 | 0.00 | 0.07 | 0.00 | 95 | 1012.8 |
| 20260905101532 | 77 | 51 | 0.0 | 2.0 | 0.00 | 0.07 | 0.00 | 95 | 1012.8 |
| 20260905101019 | 77 | 76 | 0.0 | 2.0 | 0.00 | 0.07 | 0.00 | 95 | 1012.7 |
| 20260905100518 | 77 | 51 | 0.0 | 2.0 | 0.00 | 0.07 | 0.00 | 95 | 1012.7 |
| 20260905100018 | 77 | 93 | 0.0 | 2.0 | 0.00 | 0.07 | 0.00 | 94 | 1012.7 |
| 20260905095511 | 77 | 51 | 0.0 | 2.0 | 0.00 | 0.07 | 0.00 | 94 | 1012.7 |
| 20260905095015 | 77 | 83 | 1.0 | 2.0 | 0.00 | 0.07 | 0.00 | 94 | 1012.6 |
| 20260905094530 | 77 | 80 | 0.0 | 1.0 | 0.00 | 0.07 | 0.00 | 94 | 1012.7 |
| 20260905094018 | 77 | 93 | 0.0 | 1.0 | 0.00 | 0.07 | 0.00 | 94 | 1012.7 |
| 20260905093517 | 77 | 51 | 0.0 | 1.0 | 0.00 | 0.07 | 0.00 | 94 | 1012.6 |
| 20260905093032 | 77 | 51 | 0.0 | 1.0 | 0.00 | 0.07 | 0.00 | 94 | 1012.6 |
| 20260905092519 | 77 | 119 | 0.0 | 1.0 | 0.00 | 0.07 | 0.00 | 94 | 1012.8 |
| 20260905092010 | 77 | 93 | 0.0 | 1.0 | 0.00 | 0.07 | 0.00 | 94 | 1012.7 |
| 20260905091524 | 77 | 67 | 0.0 | 2.0 | 0.00 | 0.07 | 0.00 | 94 | 1012.8 |
| 20260905091013 | 77 | 34 | 0.0 | 2.0 | 0.00 | 0.07 | 0.00 | 94 | 1012.7 |
| 20260905090516 | 77 | 309 | 0.0 | 1.0 | 0.00 | 0.07 | 0.00 | 94 | 1012.6 |
| 20260905090035 | 77 | 51 | 0.0 | 1.0 | 0.00 | 0.07 | 0.00 | 94 | 1012.6 |
| 20260905085518 | 77 | 76 | 0.0 | 1.0 | 0.00 | 0.07 | 0.00 | 94 | 1012.7 |
| 20260905085020 | 77 | 93 | 0.0 | 1.0 | 0.00 | 0.07 | 0.00 | 94 | 1012.6 |
| 20260905084531 | 77 | 76 | 0.0 | 1.0 | 0.00 | 0.07 | 0.00 | 94 | 1012.4 |
| 20260905084017 | 77 | 51 | 0.0 | 1.0 | 0.00 | 0.07 | 0.00 | 94 | 1012.5 |
| 20260905083513 | 78 | 34 | 0.0 | 1.0 | 0.00 | 0.07 | 0.00 | 94 | 1012.4 |
| 20260905083033 | 78 | 34 | 0.0 | 1.0 | 0.00 | 0.07 | 0.00 | 94 | 1012.5 |
| 20260905082516 | 78 | 67 | 0.0 | 2.0 | 0.00 | 0.07 | 0.00 | 94 | 1012.6 |
| 20260905082019 | 78 | 58 | 0.0 | 2.0 | 0.00 | 0.07 | 0.00 | 94 | 1012.8 |
| 20260905081531 | 78 | 67 | 0.0 | 2.0 | 0.00 | 0.07 | 0.00 | 94 | 1012.9 |
| 20260905081021 | 78 | 9 | 0.0 | 2.0 | 0.00 | 0.07 | 0.00 | 94 | 1012.8 |
| 20260905080518 | 78 | 9 | 0.0 | 2.0 | 0.00 | 0.07 | 0.00 | 93 | 1012.7 |
| 20260905080021 | 78 | 51 | 1.0 | 2.0 | 0.00 | 0.07 | 0.00 | 93 | 1012.7 |
| 20260905075515 | 78 | 93 | 1.0 | 2.0 | 0.00 | 0.07 | 0.00 | 93 | 1012.6 |
| 20260905075014 | 78 | 51 | 0.0 | 1.0 | 0.00 | 0.07 | 0.00 | 93 | 1012.7 |
| 20260905074529 | 78 | 111 | 0.0 | 1.0 | 0.00 | 0.07 | 0.00 | 93 | 1012.7 |
| 20260905074019 | 78 | 51 | 0.0 | 1.0 | 0.00 | 0.07 | 0.00 | 93 | 1012.8 |
| 20260905073519 | 78 | 111 | 0.0 | 1.0 | 0.00 | 0.07 | 0.00 | 93 | 1012.8 |
| 20260905073036 | 78 | 119 | 0.0 | 1.0 | 0.00 | 0.07 | 0.00 | 93 | 1013.0 |
| 20260905072519 | 78 | 93 | 0.0 | 1.0 | 0.00 | 0.07 | 0.00 | 93 | 1013.1 |
| 20260905072011 | 78 | 51 | 0.0 | 1.0 | 0.00 | 0.07 | 0.00 | 93 | 1013.2 |
| 20260905071527 | 79 | 93 | 0.0 | 2.0 | 0.00 | 0.07 | 0.00 | 93 | 1013.2 |
| 20260905071018 | 79 | 67 | 0.0 | 2.0 | 0.00 | 0.07 | 0.00 | 93 | 1013.1 |
| 20260905070514 | 79 | 119 | 0.0 | 2.0 | 0.00 | 0.07 | 0.00 | 92 | 1013.2 |
| 20260905070033 | 79 | 61 | 1.0 | 2.0 | 0.00 | 0.07 | 0.00 | 92 | 1013.2 |
| 20260905065517 | 79 | 51 | 0.0 | 1.0 | 0.00 | 0.07 | 0.00 | 92 | 1013.2 |
| 20260905065024 | 79 | 137 | 0.0 | 2.0 | 0.00 | 0.07 | 0.00 | 92 | 1013.1 |
| 20260905064515 | 79 | 9 | 0.0 | 2.0 | 0.00 | 0.07 | 0.00 | 92 | 1013.2 |
| 20260905064019 | 79 | 93 | 0.0 | 2.0 | 0.00 | 0.07 | 0.00 | 92 | 1013.2 |
| 20260905063520 | 79 | 51 | 0.0 | 2.0 | 0.00 | 0.07 | 0.00 | 92 | 1013.3 |
| 20260905063028 | 79 | 76 | 0.0 | 2.0 | 0.00 | 0.07 | 0.00 | 92 | 1013.3 |
| 20260905062503 | 80 | 26 | 0.0 | 2.0 | 0.00 | 0.07 | 0.00 | 92 | 1013.2 |
| 20260905062005 | 80 | 51 | 0.0 | 2.0 | 0.00 | 0.07 | 0.00 | 92 | 1013.4 |
| 20260905061509 | 80 | 76 | 0.0 | 2.0 | 0.00 | 0.07 | 0.00 | 92 | 1013.3 |
| 20260905061007 | 80 | 51 | 1.0 | 2.0 | 0.00 | 0.07 | 0.00 | 92 | 1013.4 |
| 20260905060514 | 80 | 51 | 0.0 | 4.0 | 0.00 | 0.07 | 0.00 | 92 | 1013.4 |
| 20260905060025 | 80 | 126 | 1.0 | 4.0 | 0.00 | 0.07 | 0.00 | 92 | 1013.4 |
| 20260905055514 | 80 | 119 | 0.0 | 2.0 | 0.00 | 0.07 | 0.00 | 91 | 1013.3 |
| 20260905055017 | 80 | 115 | 0.0 | 2.0 | 0.00 | 0.07 | 0.00 | 91 | 1013.3 |
| 20260905054505 | 80 | 143 | 1.0 | 4.0 | 0.00 | 0.07 | 0.00 | 91 | 1013.3 |
| 20260905054009 | 80 | 165 | 1.0 | 4.0 | 0.00 | 0.07 | 0.00 | 91 | 1013.3 |
| 20260905053508 | 80 | 143 | 0.0 | 3.0 | 0.00 | 0.07 | 0.00 | 91 | 1013.4 |
| 20260905053015 | 80 | 93 | 1.0 | 4.0 | 0.00 | 0.07 | 0.00 | 91 | 1013.4 |
| 20260905052512 | 81 | 165 | 1.0 | 4.0 | 0.00 | 0.07 | 0.00 | 91 | 1013.5 |
| 20260905052013 | 81 | 161 | 1.0 | 5.0 | 0.00 | 0.07 | 0.00 | 91 | 1013.4 |
| 20260905051530 | 81 | 153 | 1.0 | 5.0 | 0.00 | 0.07 | 0.00 | 90 | 1013.3 |
| 20260905051015 | 81 | 187 | 2.0 | 4.0 | 0.00 | 0.07 | 0.00 | 90 | 1013.4 |
| 20260905050505 | 81 | 168 | 1.0 | 5.0 | 0.00 | 0.07 | 0.00 | 90 | 1013.4 |
| 20260905050009 | 81 | 126 | 1.0 | 5.0 | 0.00 | 0.07 | 0.00 | 90 | 1013.4 |
| 20260905045509 | 81 | 146 | 2.0 | 4.0 | 0.00 | 0.07 | 0.07 | 90 | 1013.3 |
| 20260905045010 | 81 | 161 | 0.0 | 4.0 | 0.00 | 0.07 | 0.07 | 90 | 1013.2 |
| 20260905044518 | 81 | 157 | 1.0 | 4.0 | 0.00 | 0.07 | 0.07 | 90 | 1013.3 |
| 20260905044017 | 81 | 157 | 1.0 | 6.0 | 0.00 | 0.07 | 0.07 | 90 | 1013.3 |
| 20260905043513 | 81 | 178 | 2.0 | 6.0 | 0.00 | 0.07 | 0.07 | 90 | 1013.4 |
| 20260905043029 | 81 | 162 | 2.0 | 5.0 | 0.00 | 0.07 | 0.07 | 90 | 1013.5 |
| 20260905042503 | 81 | 161 | 1.0 | 5.0 | 0.00 | 0.07 | 0.07 | 90 | 1013.5 |
| 20260905042003 | 82 | 167 | 1.0 | 4.0 | 0.00 | 0.07 | 0.07 | 90 | 1013.5 |
| 20260905041510 | 82 | 153 | 1.0 | 5.0 | 0.00 | 0.07 | 0.07 | 89 | 1013.5 |
| 20260905041008 | 82 | 221 | 1.0 | 5.0 | 0.00 | 0.07 | 0.07 | 89 | 1013.6 |
| 20260905040512 | 82 | 148 | 2.0 | 5.0 | 0.00 | 0.07 | 0.07 | 89 | 1013.7 |
| 20260905040032 | 82 | 163 | 1.0 | 5.0 | 0.00 | 0.07 | 0.07 | 89 | 1013.6 |
| 20260905035517 | 82 | 178 | 2.0 | 5.0 | 0.00 | 0.07 | 0.07 | 89 | 1013.6 |
| 20260905035016 | 82 | 168 | 1.0 | 7.0 | 0.00 | 0.07 | 0.07 | 89 | 1013.7 |
| 20260905034507 | 82 | 178 | 1.0 | 7.0 | 0.00 | 0.07 | 0.07 | 89 | 1013.5 |
| 20260905034008 | 82 | 196 | 3.0 | 7.0 | 0.00 | 0.07 | 0.07 | 89 | 1013.4 |
| 20260905033509 | 82 | 155 | 3.0 | 7.0 | 0.00 | 0.07 | 0.07 | 89 | 1013.5 |
| 20260905033014 | 82 | 171 | 2.0 | 7.0 | 0.00 | 0.07 | 0.07 | 89 | 1013.6 |
| 20260905032510 | 82 | 155 | 3.0 | 11.0 | 0.00 | 0.07 | 0.07 | 89 | 1013.6 |
| 20260905032014 | 82 | 157 | 3.0 | 11.0 | 0.00 | 0.07 | 0.07 | 88 | 1013.5 |
| 20260905031532 | 83 | 198 | 3.0 | 11.0 | 0.00 | 0.07 | 0.07 | 88 | 1013.5 |
| 20260905031013 | 83 | 205 | 3.0 | 11.0 | 0.00 | 0.07 | 0.07 | 88 | 1013.5 |
| 20260905030506 | 83 | 188 | 3.0 | 11.0 | 0.00 | 0.07 | 0.07 | 88 | 1013.6 |
| 20260905030013 | 83 | 150 | 2.0 | 9.0 | 0.00 | 0.07 | 0.07 | 88 | 1013.5 |
| 20260905025507 | 83 | 178 | 4.0 | 9.0 | 0.00 | 0.07 | 0.07 | 88 | 1013.5 |
| 20260905025009 | 83 | 191 | 3.0 | 9.0 | 0.00 | 0.07 | 0.07 | 88 | 1013.5 |
| 20260905024520 | 83 | 148 | 3.0 | 9.0 | 0.00 | 0.07 | 0.07 | 88 | 1013.3 |
| 20260905024012 | 82 | 178 | 2.0 | 7.0 | 0.00 | 0.07 | 0.07 | 88 | 1013.2 |
| 20260905023514 | 82 | 157 | 2.0 | 6.0 | 0.00 | 0.07 | 0.07 | 87 | 1013.2 |
| 20260905023031 | 82 | 178 | 1.0 | 5.0 | 0.00 | 0.07 | 0.07 | 86 | 1013.3 |
| 20260905022506 | 82 | 171 | 1.0 | 4.0 | 0.00 | 0.07 | 0.07 | 85 | 1013.3 |
| 20260905022006 | 83 | 178 | 1.0 | 4.0 | 0.00 | 0.07 | 0.07 | 84 | 1013.2 |
| 20260905021513 | 83 | 157 | 1.0 | 3.0 | 0.00 | 0.07 | 0.07 | 84 | 1013.2 |
| 20260905021010 | 83 | 137 | 0.0 | 3.0 | 0.00 | 0.07 | 0.07 | 84 | 1013.0 |
| 20260905020512 | 83 | 34 | 1.0 | 3.0 | 0.00 | 0.07 | 0.07 | 83 | 1012.9 |
| 20260905020026 | 83 | 137 | 0.0 | 3.0 | 0.00 | 0.07 | 0.07 | 82 | 1012.7 |
| 20260905015515 | 84 | 153 | 1.0 | 5.0 | 0.00 | 0.07 | 0.07 | 81 | 1012.7 |
| 20260905015013 | 84 | 76 | 0.0 | 5.0 | 0.00 | 0.07 | 0.07 | 81 | 1012.7 |
| 20260905014508 | 84 | 51 | 0.0 | 2.0 | 0.00 | 0.07 | 0.07 | 80 | 1012.7 |
| 20260905014011 | 84 | 137 | 0.0 | 5.0 | 0.00 | 0.07 | 0.07 | 80 | 1012.8 |
| 20260905013508 | 84 | 137 | 1.0 | 5.0 | 0.00 | 0.07 | 0.07 | 79 | 1012.7 |
| 20260905013017 | 85 | 165 | 0.0 | 2.0 | 0.00 | 0.07 | 0.07 | 78 | 1012.7 |
| 20260905012513 | 85 | 93 | 1.0 | 2.0 | 0.00 | 0.07 | 0.07 | 78 | 1012.5 |
| 20260905012012 | 85 | 137 | 0.0 | 7.0 | 0.00 | 0.07 | 0.07 | 77 | 1012.4 |
| 20260905011529 | 86 | 103 | 1.0 | 7.0 | 0.00 | 0.07 | 0.07 | 77 | 1012.4 |
| 20260905011016 | 86 | 93 | 2.0 | 6.0 | 0.00 | 0.07 | 0.07 | 78 | 1012.5 |
| 20260905010504 | 87 | 44 | 1.0 | 6.0 | 0.00 | 0.07 | 0.07 | 78 | 1012.4 |
| 20260905010010 | 87 | 142 | 2.0 | 6.0 | 0.00 | 0.07 | 0.07 | 78 | 1012.3 |
| 20260905005510 | 87 | 161 | 2.0 | 7.0 | 0.00 | 0.07 | 0.07 | 77 | 1012.3 |
| 20260905005012 | 88 | 129 | 3.0 | 7.0 | 0.00 | 0.07 | 0.07 | 77 | 1012.3 |
| 20260905004521 | 88 | 148 | 2.0 | 6.0 | 0.00 | 0.07 | 0.07 | 77 | 1012.3 |
| 20260905004019 | 88 | 165 | 2.0 | 5.0 | 0.00 | 0.07 | 0.07 | 76 | 1012.3 |
| 20260905003516 | 89 | 137 | 1.0 | 6.0 | 0.00 | 0.07 | 0.07 | 76 | 1012.2 |
| 20260905003031 | 89 | 209 | 2.0 | 9.0 | 0.00 | 0.07 | 0.07 | 75 | 1012.1 |
| 20260905002517 | 89 | 161 | 3.0 | 9.0 | 0.00 | 0.07 | 0.07 | 75 | 1012.0 |
| 20260905002009 | 89 | 178 | 2.0 | 8.0 | 0.00 | 0.07 | 0.07 | 75 | 1011.9 |
| 20260905001514 | 90 | 137 | 2.0 | 8.0 | 0.00 | 0.07 | 0.07 | 74 | 1011.9 |
| 20260905001013 | 90 | 136 | 4.0 | 10.0 | 0.00 | 0.07 | 0.07 | 73 | 1011.8 |
| 20260905000512 | 91 | 167 | 4.0 | 10.0 | 0.00 | 0.07 | 0.07 | 73 | 1011.8 |
| 20260905000034 | 91 | 161 | 3.0 | 10.0 | 0.00 | 0.07 | 0.07 | 72 | 1011.8 |
| 20260904235513 | 92 | 167 | 4.0 | 10.0 | 0.00 | 0.07 | 0.07 | 71 | 1011.8 |
| 20260904235016 | 92 | 198 | 3.0 | 9.0 | 0.00 | 0.07 | 0.07 | 70 | 1011.8 |
| 20260904234538 | 92 | 178 | 4.0 | 7.0 | 0.00 | 0.07 | 0.07 | 69 | 1011.7 |
| 20260904234009 | 92 | 161 | 2.0 | 9.0 | 0.00 | 0.07 | 0.07 | 71 | 1011.7 |
| 20260904233508 | 92 | 178 | 3.0 | 9.0 | 0.00 | 0.07 | 0.07 | 71 | 1011.7 |
| 20260904233023 | 92 | 93 | 1.0 | 7.0 | 0.00 | 0.07 | 0.07 | 71 | 1011.7 |
| 20260904232513 | 92 | 178 | 3.0 | 9.0 | 0.00 | 0.07 | 0.07 | 70 | 1011.7 |
| 20260904232019 | 92 | 170 | 3.0 | 10.0 | 0.00 | 0.07 | 0.07 | 70 | 1011.6 |
| 20260904231532 | 92 | 178 | 4.0 | 10.0 | 0.00 | 0.07 | 0.07 | 69 | 1011.6 |
| 20260904231014 | 93 | 146 | 1.0 | 4.0 | 0.00 | 0.07 | 0.07 | 69 | 1011.7 |
| 20260904230518 | 93 | 83 | 1.0 | 3.0 | 0.00 | 0.07 | 0.07 | 69 | 1011.6 |
| 20260904230034 | 93 | 157 | 1.0 | 4.0 | 0.00 | 0.07 | 0.07 | 67 | 1011.7 |
| 20260904225510 | 94 | 51 | 1.0 | 4.0 | 0.00 | 0.07 | 0.07 | 67 | 1011.8 |
| 20260904225013 | 94 | 325 | 1.0 | 4.0 | 0.00 | 0.07 | 0.07 | 67 | 1011.8 |